When you browse on this site, cookies collect data to enhance your experience and personalize the content and advertising you see.
Visit our Privacy Policy to learn more. By continuing to use the site, you agree to this use of cookies and data.
  • In Hungary
  • List of Countries
  • For 7 days
  • Water Temperature
  • Satellite Maps
  • Weather Map
  • News
  • Weather Widgets
  • user-avatar
    Login

    Hourly Weather Khotyn

    Today, 23 July, Tuesday

    Time Temperature Precipitation Wind Pressure Humidity
    00:00 +18°C° 0 mm 2 mps 747 mmHg 91%
    01:00 +17°C° 0 mm 2 mps 747 mmHg 91%
    02:00 +17°C° 0 mm 2 mps 746 mmHg 91%
    03:00 +17°C° 0 mm 2 mps 746 mmHg 91%
    04:00 +17°C° 0 mm 2 mps 746 mmHg 90%
    05:00 +17°C° 0 mm 2 mps 746 mmHg 90%
    06:00 +17°C° 0.1 mm 2 mps 746 mmHg 88%
    07:00 +17°C° 0.1 mm 3 mps 746 mmHg 86%
    08:00 +17°C° 0.1 mm 3 mps 746 mmHg 83%
    09:00 +19°C° 0.1 mm 3 mps 746 mmHg 79%
    10:00 +20°C° 0.1 mm 3 mps 746 mmHg 74%
    11:00 +21°C° 0.1 mm 3 mps 746 mmHg 69%
    12:00 +22°C° 0.2 mm 3 mps 745 mmHg 65%
    13:00 +23°C° 0.2 mm 4 mps 745 mmHg 61%
    14:00 +25°C° 0.2 mm 4 mps 745 mmHg 57%
    15:00 +25°C° 0.4 mm 4 mps 745 mmHg 59%
    16:00 +23°C° 0.4 mm 4 mps 745 mmHg 60%
    17:00 +24°C° 0.4 mm 3 mps 744 mmHg 62%
    18:00 +21°C° 0.2 mm 3 mps 744 mmHg 70%
    19:00 +20°C° 0.2 mm 3 mps 744 mmHg 77%
    20:00 +18°C° 0.2 mm 3 mps 744 mmHg 84%
    21:00 +17°C° 0 mm 3 mps 744 mmHg 87%
    22:00 +17°C° 0 mm 3 mps 745 mmHg 90%
    23:00 +16°C° 0 mm 3 mps 745 mmHg 92%

    Tomorrow, 24 July, Wednesday

    Time Temperature Precipitation Wind Pressure Humidity
    00:00 +14°C° 0 mm 3 mps 745 mmHg 93%
    01:00 +14°C° 0 mm 4 mps 745 mmHg 94%
    02:00 +14°C° 0 mm 5 mps 745 mmHg 95%
    03:00 +14°C° 0 mm 4 mps 745 mmHg 96%
    04:00 +13°C° 0 mm 4 mps 745 mmHg 96%
    05:00 +13°C° 0 mm 4 mps 744 mmHg 96%
    06:00 +14°C° 0 mm 5 mps 744 mmHg 92%
    07:00 +16°C° 0 mm 5 mps 745 mmHg 88%
    08:00 +17°C° 0 mm 5 mps 745 mmHg 84%
    09:00 +20°C° 0 mm 5 mps 745 mmHg 79%
    10:00 +21°C° 0 mm 6 mps 744 mmHg 73%
    11:00 +22°C° 0 mm 6 mps 744 mmHg 67%
    12:00 +23°C° 0.3 mm 6 mps 744 mmHg 66%
    13:00 +24°C° 0.3 mm 6 mps 744 mmHg 65%
    14:00 +24°C° 0.3 mm 6 mps 744 mmHg 64%
    15:00 +24°C° 0.1 mm 6 mps 744 mmHg 65%
    16:00 +24°C° 0.1 mm 6 mps 744 mmHg 65%
    17:00 +24°C° 0.1 mm 6 mps 744 mmHg 66%
    18:00 +22°C° 0.4 mm 5 mps 744 mmHg 72%
    19:00 +21°C° 0.4 mm 4 mps 744 mmHg 79%
    20:00 +19°C° 0.4 mm 3 mps 744 mmHg 86%
    21:00 +19°C° 0 mm 3 mps 744 mmHg 88%
    22:00 +18°C° 0 mm 3 mps 745 mmHg 90%
    23:00 +17°C° 0 mm 3 mps 745 mmHg 92%

    Day after tomorrow, 25 July, Thursday

    Time Temperature Precipitation Wind Pressure Humidity
    00:00 +17°C° 0 mm 3 mps 745 mmHg 93%
    01:00 +17°C° 0 mm 3 mps 745 mmHg 94%
    02:00 +16°C° 0 mm 2 mps 745 mmHg 94%
    03:00 +16°C° 0 mm 2 mps 745 mmHg 95%
    04:00 +16°C° 0 mm 2 mps 745 mmHg 95%
    05:00 +15°C° 0 mm 2 mps 745 mmHg 95%
    06:00 +17°C° 0 mm 3 mps 745 mmHg 91%
    07:00 +18°C° 0 mm 3 mps 746 mmHg 86%
    08:00 +20°C° 0 mm 3 mps 746 mmHg 82%
    09:00 +21°C° 0.1 mm 3 mps 746 mmHg 74%
    10:00 +24°C° 0.1 mm 3 mps 746 mmHg 67%
    11:00 +26°C° 0.1 mm 3 mps 746 mmHg 59%
    12:00 +26°C° 0.2 mm 3 mps 745 mmHg 59%
    13:00 +26°C° 0.2 mm 4 mps 745 mmHg 58%
    14:00 +27°C° 0.2 mm 4 mps 745 mmHg 57%
    15:00 +26°C° 0.2 mm 3 mps 745 mmHg 60%
    16:00 +26°C° 0.2 mm 3 mps 744 mmHg 63%
    17:00 +26°C° 0.2 mm 3 mps 744 mmHg 66%
    18:00 +24°C° 0 mm 2 mps 744 mmHg 70%
    19:00 +23°C° 0 mm 2 mps 744 mmHg 75%
    20:00 +22°C° 0 mm 1 mps 744 mmHg 80%
    21:00 +21°C° 0.5 mm 1 mps 744 mmHg 83%
    22:00 +20°C° 0.5 mm 1 mps 744 mmHg 85%
    23:00 +20°C° 0.5 mm 1 mps 744 mmHg 88%

    26 July, Friday

    Time Temperature Precipitation Wind Pressure Humidity
    00:00 +19°C° 0.1 mm 1 mps 744 mmHg 89%
    01:00 +19°C° 0.1 mm 1 mps 743 mmHg 90%
    02:00 +18°C° 0.1 mm 1 mps 743 mmHg 92%
    03:00 +18°C° 0 mm 1 mps 743 mmHg 92%
    04:00 +18°C° 0 mm 1 mps 743 mmHg 92%
    05:00 +18°C° 0 mm 1 mps 743 mmHg 93%
    06:00 +18°C° 0.1 mm 2 mps 742 mmHg 89%
    07:00 +19°C° 0.1 mm 2 mps 742 mmHg 85%
    08:00 +21°C° 0.1 mm 2 mps 742 mmHg 81%
    09:00 +23°C° 0.6 mm 2 mps 742 mmHg 76%
    10:00 +23°C° 0.6 mm 2 mps 742 mmHg 71%
    11:00 +24°C° 0.6 mm 2 mps 742 mmHg 67%
    12:00 +25°C° 0.2 mm 2 mps 742 mmHg 63%
    13:00 +26°C° 0.2 mm 2 mps 742 mmHg 59%
    14:00 +27°C° 0.2 mm 2 mps 742 mmHg 55%
    15:00 +26°C° 0.3 mm 2 mps 741 mmHg 57%
    16:00 +26°C° 0.3 mm 2 mps 741 mmHg 59%
    17:00 +26°C° 0.3 mm 2 mps 741 mmHg 61%
    18:00 +24°C° 0 mm 2 mps 741 mmHg 66%
    19:00 +23°C° 0 mm 2 mps 741 mmHg 72%
    20:00 +20°C° 0 mm 2 mps 741 mmHg 78%
    21:00 +19°C° 0.2 mm 2 mps 741 mmHg 81%
    22:00 +20°C° 0.2 mm 1 mps 741 mmHg 84%
    23:00 +19°C° 0.2 mm 1 mps 741 mmHg 86%

    27 July, Saturday

    Time Temperature Precipitation Wind Pressure Humidity
    00:00 +18°C° 0 mm 1 mps 741 mmHg 88%
    01:00 +18°C° 0 mm 1 mps 741 mmHg 89%
    02:00 +16°C° 0 mm 1 mps 741 mmHg 91%
    03:00 +16°C° 0.1 mm 1 mps 741 mmHg 92%
    04:00 +16°C° 0.1 mm 1 mps 741 mmHg 93%
    05:00 +15°C° 0.1 mm 1 mps 741 mmHg 94%
    06:00 +17°C° 0 mm 2 mps 741 mmHg 89%
    07:00 +18°C° 0 mm 2 mps 742 mmHg 84%
    08:00 +20°C° 0 mm 2 mps 742 mmHg 79%
    09:00 +21°C° 0.1 mm 2 mps 742 mmHg 74%
    10:00 +23°C° 0.1 mm 2 mps 742 mmHg 69%
    11:00 +25°C° 0.1 mm 2 mps 742 mmHg 63%
    12:00 +25°C° 0.2 mm 3 mps 741 mmHg 62%
    13:00 +26°C° 0.2 mm 3 mps 741 mmHg 60%
    14:00 +26°C° 0.2 mm 3 mps 741 mmHg 59%
    15:00 +26°C° 0.2 mm 3 mps 741 mmHg 61%
    16:00 +25°C° 0.2 mm 3 mps 741 mmHg 64%
    17:00 +25°C° 0.2 mm 3 mps 741 mmHg 67%
    18:00 +24°C° 0.7 mm 3 mps 741 mmHg 75%
    19:00 +21°C° 0.7 mm 3 mps 741 mmHg 82%
    20:00 +19°C° 0.7 mm 3 mps 741 mmHg 89%
    21:00 +19°C° 0 mm 3 mps 741 mmHg 91%
    22:00 +18°C° 0 mm 3 mps 741 mmHg 93%
    23:00 +18°C° 0 mm 3 mps 741 mmHg 95%

    28 July, Sunday

    Time Temperature Precipitation Wind Pressure Humidity
    00:00 +18°C° 0 mm 2 mps 741 mmHg 95%
    01:00 +17°C° 0 mm 2 mps 741 mmHg 95%
    02:00 +17°C° 0 mm 2 mps 741 mmHg 95%
    03:00 +17°C° 0.2 mm 2 mps 741 mmHg 95%
    04:00 +17°C° 0.2 mm 2 mps 741 mmHg 96%
    05:00 +17°C° 0.2 mm 2 mps 741 mmHg 97%
    06:00 +18°C° 0.3 mm 3 mps 741 mmHg 94%
    07:00 +19°C° 0.3 mm 3 mps 741 mmHg 91%
    08:00 +21°C° 0.3 mm 3 mps 742 mmHg 89%
    09:00 +22°C° 0.2 mm 3 mps 742 mmHg 83%
    10:00 +24°C° 0.2 mm 3 mps 742 mmHg 77%
    11:00 +26°C° 0.2 mm 4 mps 742 mmHg 70%
    12:00 +27°C° 0.3 mm 4 mps 742 mmHg 68%
    13:00 +27°C° 0.3 mm 4 mps 741 mmHg 65%
    14:00 +28°C° 0.3 mm 4 mps 741 mmHg 63%
    15:00 +28°C° 0.3 mm 4 mps 741 mmHg 64%
    16:00 +27°C° 0.3 mm 4 mps 741 mmHg 66%
    17:00 +27°C° 0.3 mm 4 mps 741 mmHg 67%
    18:00 +26°C° 0.3 mm 4 mps 741 mmHg 73%
    19:00 +24°C° 0.3 mm 3 mps 742 mmHg 80%
    20:00 +23°C° 0.3 mm 2 mps 742 mmHg 86%
    21:00 +21°C° 0.3 mm 3 mps 742 mmHg 87%
    22:00 +21°C° 0.3 mm 3 mps 742 mmHg 89%
    23:00 +20°C° 0.3 mm 3 mps 742 mmHg 90%
    Show more